Location: Dead Woman Crossing
(43.5369°N, 106.3228°W)
Time: 16:31:59
(UTC+00:00)

ITUPSAT 1 - Pass Details

Date: 02 July 2022
Orbit: 701 x 711 km, 98.6° (Epoch: 13 August)

Event Time Altitude Azimuth Distance (km) Brightness Sun altitude
Rises 05:07:03 0° 355° (N) 3,111 ? -17.7°
Reaches altitude 10° 05:10:23 10° 330° (NNW) 2,189 ? -18.0°
Maximum altitude 05:12:43 14° 301° (WNW) 1,942 ? -18.2°
Drops below altitude 10° 05:15:03 10° 271° (W) 2,184 ? -18.4°
Sets 05:18:23 0° 246° (WSW) 3,100 ? -18.7°
